Weather in Berdychiv

Ukraine / Zhytomyr Region     49°53′32″N   28°35′26″E
temp.,
°C
wind,
m/s
gust,
m/s
humid.,
%
clouds,
%
prec.,
mm/h
press.,
hPa
HPBL,
m
13 may, thu
thu1300:00+6se228623 0.0 101225
03:00+6sse3390100 0.0 101153
06:00+5sse369496 0.0 1009128
09:00+11sse586931 0.0 1008702
12:00+14s8106399 0.0 10081364
15:00+11sse71177100 0.0 1007969
18:00+12se61281100 0.0 1006737
21:00+11s71385100 0.0 1007628
14 may, fri
fri1400:00+10sse51389100 0.0 1007523
03:00+10sse5128364 0.0 1006383
06:00+10sse5117899 0.0 1006404
09:00+13sse577337 0.0 1006503
12:00+17sse6766100 0.2 10051251
15:00+16s5667100 0.9 10061024
18:00+14sw5878100 0.1 1006498
21:00+12sw3892100 0.1 1006257
15 may, sat
sat1500:00+12wsw389399 0.3 1007238
03:00+9wsw369682 0.3 1008110
06:00+8sw3794100 0.0 1009155
09:00+13sw578167 0.0 1010724
12:00+11sw5893100 0.4 1011461
15:00+13w678787 0.7 1012604
18:00+14wsw45756 0.0 1012548
21:00+11ssw22915 0.0 101218
16 may, sun
sun1600:00+10ssw22915 0.0 101320
03:00+9s22925 0.0 101319
06:00+9sse22926 0.0 101325
09:00+15se4573100 0.0 1013412
12:00+20se456292 0.0 1012989
15:00+22se5652100 0.2 10102108
18:00+19sse5770100 0.5 1010585
21:00+15ese3484100 1.1 100954
17 may, mon
mon1700:00+13se348863 0.0 100955
03:00+12sw2289100 0.0 100912
06:00+12ssw1187100 0.0 100810
09:00+16nw3483100 0.0 1008350
12:00+18n3376100 0.0 1008844
15:00+17nw6681100 0.9 1008756
18:00+17nnw3477100 0.3 1008788
21:00+13nw3592100 0.3 100972